QPF
0.01 0.00 0.01 0.02 0.01 0.01 0.01 0.01 0.01 0.01 0.01 0.02 0.02 0.01 0.01 0.02 0.02 0.02 0.01 0.01 0.01 0.02 0.01 0.01 0.01 0.01 0.02 0.02 0.01 0.01 0.00 0.00 0.00 0.00 0.00 0.00 0.00 0.00 0.00 0.00 0.00 0.00 0.01
0.02 0.01 0.01 0.01 0.01 0.01 0.01 0.01 0.01 0.01 0.01 0.02 0.02 0.02 0.02 0.02 0.02 0.02 0.01 0.01 0.01 0.01 0.02 0.02 0.02 0.02 0.02 0.01 0.01 0.01 0.00 0.00 0.00 0.00 0.00 0.00 0.00 0.00 0.01 0.01 0.00 0.01 0.01
0.03 0.03 0.02 0.02 0.01 0.01 0.01 0.01 0.01 0.01 0.01 0.02 0.02 0.02 0.02 0.02 0.02 0.02 0.02 0.01 0.01 0.01 0.03 0.04 0.04 0.03 0.03 0.02 0.01 0.01 0.00 0.00 0.00 0.00 0.00 0.00 0.00 0.00 0.01 0.01 0.01 0.01 0.01
0.03 0.04 0.03 0.03 0.02 0.01 0.01 0.01 0.01 0.01 0.01 0.02 0.01 0.02 0.03 0.02 0.01 0.02 0.02 0.02 0.02 0.02 0.03 0.03 0.02 0.02 0.02 0.02 0.01 0.01 0.01 0.00 0.00 0.00 0.00 0.00 0.00 0.01 0.01 0.01 0.00 0.01 0.01
0.04 0.05 0.05 0.04 0.03 0.02 0.01 0.01 0.01 0.01 0.01 0.01 0.01 0.01 0.03 0.04 0.02 0.01 0.02 0.02 0.03 0.02 0.02 0.02 0.01 0.01 0.01 0.01 0.01 0.01 0.01 0.00 0.00 0.00 0.00 0.00 0.00 0.02 0.01 0.01 0.01 0.01 0.01
0.06 0.06 0.06 0.05 0.04 0.03 0.02 0.01 0.01 0.01 0.01 0.01 0.01 0.01 0.02 0.03 0.03 0.02 0.01 0.02 0.03 0.02 0.01 0.01 0.01 0.01 0.01 0.01 0.01 0.01 0.00 0.00 0.00 0.00 0.00 0.00 0.00 0.01 0.01 0.01 0.01 0.01 0.01
0.06 0.07 0.07 0.06 0.06 0.03 0.02 0.01 0.01 0.01 0.01 0.01 0.02 0.02 0.02 0.02 0.03 0.04 0.03 0.02 0.02 0.02 0.01 0.01 0.01 0.01 0.01 0.01 0.00 0.00 0.00 0.01 0.01 0.00 0.00 0.00 0.00 0.01 0.01 0.01 0.01 0.01 0.01
0.07 0.07 0.06 0.06 0.07 0.06 0.03 0.02 0.01 0.01 0.01 0.01 0.02 0.02 0.02 0.02 0.03 0.04 0.04 0.03 0.02 0.02 0.01 0.01 0.01 0.01 0.01 0.01 0.00 0.00 0.00 0.00 0.00 0.00 0.00 0.00 0.01 0.01 0.01 0.01 0.01 0.01 0.02
0.08 0.07 0.05 0.05 0.06 0.07 0.04 0.02 0.02 0.01 0.01 0.01 0.01 0.02 0.02 0.02 0.02 0.03 0.03 0.04 0.02 0.01 0.02 0.01 0.01 0.01 0.01 0.01 0.01 0.00 0.00 0.00 0.00 0.00 0.01 0.00 0.01 0.02 0.01 0.01 0.01 0.01 0.01
0.13 0.07 0.05 0.03 0.05 0.07 0.04 0.02 0.02 0.01 0.00 0.01 0.01 0.01 0.01 0.02 0.02 0.03 0.03 0.04 0.04 0.03 0.02 0.02 0.01 0.01 0.01 0.01 0.01 0.00 0.00 0.00 0.00 0.00 0.00 0.00 0.01 0.01 0.02 0.01 0.01 0.01 0.01
0.18 0.09 0.05 0.04 0.05 0.08 0.06 0.03 0.02 0.01 0.01 0.00 0.01 0.01 0.01 0.01 0.02 0.03 0.02 0.03 0.03 0.04 0.02 0.02 0.02 0.02 0.02 0.01 0.00 0.00 0.00 0.00 0.00 0.00 0.00 0.01 0.01 0.02 0.02 0.02 0.01 0.01 0.01
0.20 0.13 0.05 0.03 0.05 0.08 0.08 0.04 0.03 0.01 0.00 0.00 0.00 0.01 0.01 0.01 0.01 0.02 0.03 0.02 0.02 0.02 0.02 0.02 0.02 0.02 0.02 0.01 0.00 0.00 0.00 0.00 0.00 0.00 0.00 0.01 0.02 0.02 0.02 0.02 0.02 0.02 0.02
0.21 0.18 0.07 0.03 0.04 0.07 0.09 0.05 0.03 0.02 0.01 0.00 0.00 0.01 0.01 0.01 0.02 0.02 0.02 0.02 0.02 0.02 0.02 0.02 0.02 0.01 0.01 0.01 0.00 0.00 0.00 0.00 0.00 0.00 0.00 0.00 0.01 0.02 0.01 0.02 0.03 0.03 0.03
0.16 0.20 0.13 0.05 0.06 0.07 0.07 0.06 0.04 0.03 0.01 0.01 0.01 0.02 0.02 0.02 0.03 0.02 0.01 0.01 0.01 0.01 0.02 0.02 0.02 0.02 0.01 0.01 0.01 0.01 0.00 0.00 0.00 0.00 0.00 0.00 0.01 0.02 0.01 0.01 0.02 0.03 0.04
0.18 0.20 0.16 0.08 0.07 0.09 0.08 0.07 0.06 0.04 0.02 0.01 0.01 0.01 0.02 0.03 0.04 0.04 0.02 0.02 0.02 0.02 0.02 0.02 0.02 0.03 0.02 0.01 0.01 0.01 0.01 0.00 0.00 0.00 0.00 0.00 0.01 0.02 0.01 0.01 0.01 0.01 0.02
0.18 0.20 0.14 0.07 0.05 0.09 0.10 0.08 0.07 0.06 0.04 0.02 0.01 0.01 0.01 0.02 0.04 0.06 0.05 0.03 0.02 0.02 0.02 0.04 0.03 0.02 0.02 0.02 0.01 0.01 0.01 0.01 0.00 0.00 0.00 0.00 0.01 0.01 0.01 0.01 0.01 0.01 0.02
0.15 0.18 0.13 0.07 0.06 0.06 0.10 0.09 0.08 0.06 0.05 0.03 0.02 0.01 0.01 0.02 0.04 0.06 0.07 0.06 0.04 0.03 0.01 0.03 0.04 0.02 0.02 0.02 0.02 0.01 0.01 0.00 0.00 0.00 0.00 0.00 0.01 0.01 0.01 0.01 0.01 0.01 0.01
0.13 0.15 0.14 0.08 0.06 0.06 0.09 0.09 0.07 0.06 0.05 0.05 0.03 0.01 0.01 0.01 0.04 0.06 0.08 0.07 0.06 0.05 0.02 0.02 0.04 0.04 0.02 0.01 0.01 0.02 0.02 0.01 0.01 0.00 0.01 0.01 0.00 0.00 0.00 0.00 0.00 0.01 0.01
0.14 0.14 0.11 0.08 0.05 0.06 0.09 0.09 0.06 0.05 0.05 0.06 0.05 0.02 0.01 0.01 0.02 0.06 0.09 0.10 0.09 0.07 0.04 0.02 0.03 0.04 0.04 0.02 0.01 0.02 0.02 0.01 0.01 0.01 0.01 0.01 0.01 0.01 0.00 0.00 0.00 0.00 0.00
0.13 0.11 0.08 0.06 0.05 0.08 0.10 0.09 0.06 0.04 0.04 0.06 0.07 0.04 0.01 0.01 0.01 0.03 0.07 0.11 0.10 0.09 0.07 0.03 0.02 0.02 0.03 0.03 0.02 0.02 0.01 0.01 0.01 0.02 0.02 0.01 0.01 0.01 0.01 0.00 0.00 0.01 0.01
0.10 0.10 0.07 0.04 0.02 0.05 0.08 0.07 0.05 0.04 0.03 0.04 0.05 0.06 0.03 0.01 0.01 0.02 0.04 0.09 0.13 0.11 0.08 0.04 0.03 0.02 0.01 0.02 0.02 0.02 0.01 0.01 0.01 0.01 0.01 0.02 0.02 0.02 0.01 0.01 0.00 0.00 0.01
0.07 0.08 0.06 0.03 0.01 0.02 0.06 0.06 0.05 0.04 0.04 0.05 0.05 0.05 0.05 0.03 0.02 0.02 0.03 0.05 0.12 0.17 0.12 0.06 0.03 0.02 0.02 0.01 0.01 0.01 0.01 0.01 0.02 0.01 0.01 0.02 0.02 0.02 0.02 0.02 0.01 0.00 0.00
0.06 0.08 0.06 0.03 0.02 0.02 0.04 0.05 0.05 0.04 0.05 0.05 0.05 0.05 0.05 0.05 0.03 0.02 0.02 0.04 0.07 0.15 0.20 0.16 0.07 0.03 0.02 0.02 0.01 0.01 0.01 0.01 0.01 0.02 0.02 0.01 0.01 0.01 0.02 0.02 0.02 0.01 0.00
0.04 0.07 0.07 0.05 0.03 0.02 0.02 0.03 0.05 0.05 0.06 0.06 0.06 0.05 0.05 0.05 0.05 0.04 0.04 0.05 0.06 0.09 0.16 0.20 0.19 0.10 0.04 0.03 0.02 0.01 0.00 0.00 0.00 0.01 0.02 0.02 0.01 0.01 0.01 0.01 0.01 0.02 0.01
0.03 0.05 0.06 0.06 0.04 0.03 0.02 0.03 0.04 0.05 0.06 0.07 0.06 0.05 0.05 0.07 0.07 0.06 0.05 0.06 0.06 0.07 0.11 0.15 0.16 0.14 0.10 0.06 0.03 0.02 0.01 0.00 0.00 0.01 0.02 0.02 0.02 0.02 0.01 0.01 0.01 0.01 0.01
0.03 0.03 0.04 0.04 0.03 0.03 0.02 0.03 0.04 0.04 0.06 0.07 0.07 0.06 0.05 0.08 0.11 0.10 0.07 0.05 0.06 0.06 0.07 0.10 0.12 0.12 0.11 0.09 0.07 0.04 0.02 0.01 0.00 0.00 0.01 0.02 0.02 0.03 0.02 0.02 0.01 0.01 0.00
MSLP
1010.92 1010.82 1010.95 1011.31 1011.82 1012.42 1013.03 1013.58 1014.03 1014.36 1014.59 1014.75 1014.91 1015.09 1015.32 1015.59 1015.88 1016.16 1016.38 1016.53 1016.61 1016.61 1016.58 1016.54 1016.52 1016.52 1016.55 1016.60 1016.66 1016.70 1016.73 1016.75 1016.76 1016.77 1016.79 1016.82 1016.83 1016.83 1016.79 1016.71 1016.61 1016.48 1016.37
1010.39 1010.34 1010.52 1010.93 1011.50 1012.16 1012.82 1013.42 1013.92 1014.31 1014.59 1014.82 1015.04 1015.28 1015.56 1015.87 1016.18 1016.47 1016.69 1016.84 1016.89 1016.88 1016.82 1016.75 1016.69 1016.66 1016.66 1016.68 1016.70 1016.72 1016.74 1016.75 1016.78 1016.81 1016.86 1016.91 1016.95 1016.96 1016.94 1016.87 1016.76 1016.63 1016.51
1009.93 1009.91 1010.14 1010.59 1011.20 1011.90 1012.60 1013.26 1013.81 1014.25 1014.60 1014.89 1015.16 1015.45 1015.77 1016.10 1016.43 1016.71 1016.92 1017.04 1017.08 1017.04 1016.97 1016.88 1016.81 1016.76 1016.73 1016.72 1016.73 1016.73 1016.74 1016.76 1016.80 1016.85 1016.93 1017.01 1017.07 1017.11 1017.09 1017.03 1016.93 1016.81 1016.70
1009.63 1009.64 1009.88 1010.35 1010.98 1011.70 1012.43 1013.11 1013.70 1014.18 1014.57 1014.91 1015.23 1015.55 1015.89 1016.23 1016.55 1016.82 1017.02 1017.12 1017.15 1017.11 1017.03 1016.95 1016.88 1016.84 1016.81 1016.80 1016.80 1016.80 1016.81 1016.84 1016.89 1016.96 1017.05 1017.15 1017.23 1017.28 1017.28 1017.24 1017.15 1017.05 1016.95
1009.55 1009.57 1009.83 1010.29 1010.91 1011.62 1012.34 1013.01 1013.60 1014.10 1014.51 1014.88 1015.22 1015.56 1015.91 1016.25 1016.57 1016.83 1017.00 1017.10 1017.13 1017.10 1017.05 1017.00 1016.96 1016.94 1016.94 1016.96 1016.97 1016.99 1017.01 1017.05 1017.10 1017.18 1017.28 1017.38 1017.46 1017.52 1017.53 1017.50 1017.44 1017.36 1017.28
1009.71 1009.74 1009.98 1010.42 1011.00 1011.66 1012.33 1012.96 1013.53 1014.01 1014.42 1014.79 1015.15 1015.50 1015.86 1016.20 1016.51 1016.76 1016.94 1017.05 1017.09 1017.09 1017.08 1017.07 1017.09 1017.12 1017.17 1017.23 1017.28 1017.32 1017.36 1017.41 1017.47 1017.54 1017.63 1017.72 1017.79 1017.84 1017.86 1017.84 1017.79 1017.73 1017.68
1010.09 1010.11 1010.32 1010.71 1011.22 1011.81 1012.41 1012.98 1013.49 1013.94 1014.33 1014.70 1015.07 1015.43 1015.80 1016.15 1016.46 1016.72 1016.90 1017.02 1017.09 1017.13 1017.17 1017.22 1017.29 1017.39 1017.49 1017.60 1017.70 1017.78 1017.85 1017.90 1017.96 1018.03 1018.09 1018.16 1018.22 1018.25 1018.26 1018.25 1018.22 1018.18 1018.16
1010.61 1010.61 1010.78 1011.11 1011.55 1012.05 1012.57 1013.06 1013.51 1013.92 1014.29 1014.66 1015.03 1015.41 1015.79 1016.16 1016.49 1016.75 1016.96 1017.09 1017.19 1017.26 1017.34 1017.44 1017.57 1017.73 1017.89 1018.06 1018.20 1018.32 1018.41 1018.49 1018.55 1018.60 1018.65 1018.69 1018.72 1018.74 1018.74 1018.72 1018.70 1018.69 1018.67
1011.18 1011.16 1011.30 1011.57 1011.94 1012.36 1012.80 1013.22 1013.61 1013.99 1014.35 1014.72 1015.11 1015.51 1015.91 1016.30 1016.64 1016.92 1017.14 1017.29 1017.41 1017.50 1017.61 1017.75 1017.92 1018.11 1018.32 1018.53 1018.72 1018.88 1019.00 1019.09 1019.16 1019.20 1019.23 1019.25 1019.26 1019.26 1019.25 1019.23 1019.22 1019.21 1019.21
1011.69 1011.66 1011.77 1012.01 1012.32 1012.69 1013.07 1013.44 1013.80 1014.16 1014.52 1014.90 1015.31 1015.73 1016.16 1016.56 1016.92 1017.21 1017.43 1017.59 1017.72 1017.82 1017.94 1018.09 1018.28 1018.51 1018.75 1018.99 1019.21 1019.40 1019.55 1019.66 1019.73 1019.77 1019.80 1019.80 1019.80 1019.78 1019.76 1019.74 1019.73 1019.73 1019.74
1012.06 1012.04 1012.16 1012.38 1012.67 1013.01 1013.36 1013.72 1014.06 1014.42 1014.79 1015.19 1015.62 1016.06 1016.50 1016.92 1017.28 1017.57 1017.79 1017.95 1018.06 1018.17 1018.29 1018.44 1018.64 1018.88 1019.13 1019.39 1019.64 1019.85 1020.03 1020.16 1020.24 1020.29 1020.31 1020.31 1020.30 1020.28 1020.25 1020.24 1020.23 1020.23 1020.24
1012.24 1012.26 1012.41 1012.64 1012.95 1013.29 1013.65 1014.01 1014.38 1014.75 1015.13 1015.55 1015.99 1016.43 1016.88 1017.28 1017.64 1017.92 1018.13 1018.28 1018.40 1018.50 1018.62 1018.78 1018.98 1019.22 1019.48 1019.76 1020.02 1020.26 1020.45 1020.60 1020.70 1020.76 1020.78 1020.78 1020.76 1020.74 1020.72 1020.70 1020.70 1020.70 1020.71
1012.21 1012.30 1012.50 1012.78 1013.13 1013.51 1013.91 1014.30 1014.70 1015.09 1015.50 1015.92 1016.35 1016.79 1017.20 1017.59 1017.92 1018.19 1018.39 1018.54 1018.67 1018.78 1018.91 1019.08 1019.29 1019.55 1019.83 1020.12 1020.40 1020.65 1020.86 1021.02 1021.13 1021.19 1021.22 1021.22 1021.20 1021.18 1021.16 1021.14 1021.14 1021.15 1021.15
1012.00 1012.17 1012.44 1012.79 1013.20 1013.65 1014.10 1014.55 1014.99 1015.42 1015.84 1016.25 1016.66 1017.06 1017.44 1017.79 1018.09 1018.34 1018.54 1018.70 1018.85 1019.00 1019.16 1019.37 1019.61 1019.90 1020.20 1020.51 1020.81 1021.08 1021.30 1021.46 1021.58 1021.64 1021.67 1021.66 1021.64 1021.61 1021.59 1021.58 1021.57 1021.58 1021.59
1011.65 1011.90 1012.25 1012.68 1013.17 1013.69 1014.22 1014.74 1015.23 1015.69 1016.11 1016.51 1016.89 1017.24 1017.56 1017.86 1018.12 1018.36 1018.57 1018.76 1018.95 1019.16 1019.39 1019.65 1019.96 1020.29 1020.63 1020.97 1021.29 1021.57 1021.80 1021.98 1022.09 1022.15 1022.16 1022.14 1022.11 1022.08 1022.04 1022.03 1022.02 1022.02 1022.03
1011.20 1011.54 1011.96 1012.48 1013.05 1013.65 1014.26 1014.85 1015.39 1015.89 1016.32 1016.70 1017.03 1017.32 1017.59 1017.84 1018.07 1018.29 1018.51 1018.75 1019.00 1019.28 1019.60 1019.95 1020.32 1020.72 1021.12 1021.50 1021.85 1022.15 1022.39 1022.56 1022.66 1022.71 1022.71 1022.67 1022.63 1022.57 1022.53 1022.50 1022.49 1022.49 1022.49
1010.72 1011.12 1011.62 1012.20 1012.85 1013.54 1014.23 1014.89 1015.49 1016.02 1016.47 1016.83 1017.12 1017.36 1017.57 1017.77 1017.97 1018.19 1018.44 1018.72 1019.04 1019.40 1019.80 1020.23 1020.69 1021.15 1021.61 1022.04 1022.42 1022.75 1023.00 1023.18 1023.28 1023.31 1023.30 1023.24 1023.18 1023.11 1023.05 1023.01 1022.99 1022.98 1022.97
1010.24 1010.70 1011.25 1011.89 1012.61 1013.37 1014.14 1014.87 1015.54 1016.11 1016.57 1016.93 1017.20 1017.40 1017.56 1017.72 1017.90 1018.11 1018.38 1018.70 1019.08 1019.51 1019.99 1020.49 1021.01 1021.54 1022.05 1022.52 1022.95 1023.30 1023.57 1023.76 1023.87 1023.90 1023.88 1023.82 1023.74 1023.66 1023.59 1023.54 1023.51 1023.49 1023.48
1009.78 1010.28 1010.87 1011.56 1012.33 1013.16 1014.00 1014.80 1015.53 1016.15 1016.65 1017.01 1017.27 1017.45 1017.58 1017.72 1017.88 1018.09 1018.37 1018.72 1019.14 1019.61 1020.13 1020.68 1021.24 1021.81 1022.36 1022.87 1023.33 1023.72 1024.03 1024.24 1024.37 1024.42 1024.40 1024.34 1024.26 1024.18 1024.11 1024.06 1024.03 1024.00 1023.98
1009.35 1009.87 1010.48 1011.21 1012.02 1012.90 1013.80 1014.68 1015.47 1016.14 1016.68 1017.06 1017.33 1017.51 1017.64 1017.76 1017.92 1018.13 1018.41 1018.77 1019.19 1019.68 1020.20 1020.76 1021.34 1021.92 1022.49 1023.03 1023.52 1023.95 1024.29 1024.55 1024.71 1024.79 1024.80 1024.76 1024.70 1024.63 1024.58 1024.53 1024.51 1024.49 1024.46
1008.91 1009.46 1010.09 1010.84 1011.68 1012.60 1013.56 1014.48 1015.33 1016.05 1016.63 1017.05 1017.35 1017.54 1017.69 1017.82 1017.98 1018.20 1018.48 1018.83 1019.24 1019.70 1020.21 1020.74 1021.29 1021.86 1022.43 1022.98 1023.49 1023.96 1024.35 1024.65 1024.87 1025.00 1025.05 1025.05 1025.02 1024.98 1024.95 1024.93 1024.92 1024.92 1024.90
1008.46 1009.02 1009.67 1010.43 1011.30 1012.25 1013.23 1014.20 1015.09 1015.86 1016.48 1016.95 1017.28 1017.52 1017.69 1017.86 1018.04 1018.26 1018.55 1018.88 1019.26 1019.68 1020.14 1020.62 1021.13 1021.66 1022.20 1022.75 1023.28 1023.77 1024.20 1024.56 1024.84 1025.02 1025.13 1025.18 1025.20 1025.20 1025.20 1025.22 1025.24 1025.26 1025.26
1007.95 1008.53 1009.20 1009.97 1010.85 1011.82 1012.82 1013.81 1014.73 1015.53 1016.19 1016.71 1017.09 1017.38 1017.60 1017.82 1018.04 1018.29 1018.58 1018.90 1019.26 1019.63 1020.03 1020.45 1020.90 1021.37 1021.88 1022.41 1022.94 1023.45 1023.92 1024.33 1024.66 1024.90 1025.06 1025.17 1025.23 1025.28 1025.32 1025.38 1025.44 1025.49 1025.52
1007.39 1007.99 1008.67 1009.46 1010.34 1011.31 1012.31 1013.31 1014.24 1015.07 1015.76 1016.32 1016.76 1017.11 1017.40 1017.67 1017.95 1018.25 1018.56 1018.90 1019.23 1019.58 1019.92 1020.28 1020.67 1021.09 1021.55 1022.05 1022.57 1023.08 1023.58 1024.02 1024.39 1024.67 1024.89 1025.04 1025.15 1025.24 1025.32 1025.42 1025.51 1025.60 1025.67
1006.79 1007.41 1008.10 1008.88 1009.77 1010.73 1011.73 1012.72 1013.66 1014.50 1015.22 1015.81 1016.31 1016.72 1017.08 1017.43 1017.78 1018.14 1018.50 1018.86 1019.20 1019.53 1019.84 1020.16 1020.50 1020.87 1021.28 1021.75 1022.24 1022.75 1023.25 1023.70 1024.09 1024.41 1024.65 1024.84 1024.98 1025.10 1025.22 1025.35 1025.48 1025.60 1025.71
1006.20 1006.81 1007.50 1008.28 1009.16 1010.11 1011.10 1012.08 1013.02 1013.87 1014.61 1015.24 1015.78 1016.25 1016.69 1017.12 1017.54 1017.97 1018.39 1018.80 1019.17 1019.50 1019.81 1020.10 1020.41 1020.74 1021.12 1021.55 1022.01 1022.50 1022.98 1023.43 1023.82 1024.15 1024.41 1024.61 1024.77 1024.92 1025.06 1025.21 1025.36 1025.52 1025.65
Thickness
5718 5721 5722 5722 5722 5722 5722 5723 5723 5723 5723 5723 5724 5724 5725 5725 5725 5725 5725 5725 5725 5725 5724 5724 5724 5723 5723 5723 5722 5722 5721 5721 5720 5720 5719 5719 5719 5718 5718 5717 5717 5717 5716
5718 5718 5719 5719 5719 5719 5719 5719 5719 5719 5719 5720 5720 5721 5721 5721 5721 5722 5722 5722 5722 5722 5722 5721 5721 5720 5720 5720 5719 5719 5718 5717 5717 5716 5716 5716 5716 5715 5715 5714 5713 5713 5713
5715 5715 5715 5715 5715 5715 5715 5715 5716 5716 5716 5716 5716 5717 5717 5717 5718 5718 5718 5719 5719 5719 5718 5718 5718 5717 5717 5717 5716 5716 5715 5714 5714 5713 5713 5713 5713 5712 5712 5711 5710 5710 5709
5711 5711 5711 5711 5711 5711 5711 5711 5711 5712 5712 5712 5712 5713 5713 5714 5714 5714 5714 5715 5715 5715 5715 5714 5714 5714 5714 5714 5713 5713 5712 5711 5711 5710 5710 5709 5709 5709 5708 5708 5707 5706 5706
5705 5706 5706 5706 5706 5706 5706 5707 5707 5707 5708 5708 5708 5708 5709 5709 5709 5710 5710 5710 5711 5711 5711 5710 5710 5710 5710 5710 5710 5709 5709 5708 5707 5707 5706 5706 5706 5705 5705 5704 5703 5703 5702
5699 5700 5700 5701 5701 5701 5701 5701 5702 5702 5703 5703 5704 5704 5704 5704 5705 5705 5706 5706 5706 5706 5706 5706 5706 5706 5706 5706 5706 5706 5705 5704 5704 5703 5703 5702 5702 5702 5701 5700 5700 5699 5698
5692 5693 5694 5695 5695 5695 5696 5696 5697 5697 5698 5698 5699 5699 5699 5700 5700 5700 5700 5701 5701 5702 5702 5702 5702 5702 5702 5702 5702 5701 5701 5700 5699 5699 5698 5698 5698 5698 5698 5697 5696 5695 5694
5686 5687 5688 5689 5689 5689 5690 5691 5691 5692 5692 5693 5693 5694 5694 5695 5695 5695 5696 5696 5697 5697 5697 5697 5697 5697 5697 5698 5697 5697 5696 5696 5695 5694 5694 5694 5694 5694 5694 5693 5692 5691 5690
5680 5680 5681 5681 5682 5683 5684 5685 5685 5686 5687 5687 5688 5688 5689 5689 5690 5690 5691 5691 5692 5692 5692 5692 5693 5693 5693 5693 5692 5692 5692 5691 5691 5690 5689 5689 5689 5689 5689 5688 5687 5686 5685
5673 5674 5674 5675 5675 5676 5677 5679 5679 5680 5680 5681 5682 5682 5683 5683 5684 5684 5685 5686 5686 5687 5687 5687 5687 5688 5688 5688 5687 5687 5687 5686 5686 5685 5684 5684 5684 5684 5683 5682 5681 5680 5679
5665 5666 5667 5669 5669 5670 5671 5672 5673 5673 5674 5674 5675 5675 5676 5677 5678 5678 5679 5680 5681 5681 5682 5682 5682 5682 5682 5682 5682 5682 5681 5680 5680 5680 5679 5679 5679 5678 5677 5677 5676 5675 5674
5657 5659 5661 5663 5664 5664 5664 5665 5666 5666 5667 5667 5668 5668 5669 5670 5671 5672 5673 5674 5675 5675 5676 5676 5676 5676 5676 5676 5676 5675 5675 5674 5674 5674 5674 5673 5673 5672 5671 5671 5670 5669 5668
5651 5653 5655 5656 5657 5657 5657 5658 5658 5659 5659 5660 5661 5661 5662 5663 5664 5665 5666 5667 5668 5668 5669 5670 5670 5670 5670 5670 5670 5669 5668 5668 5668 5668 5668 5667 5667 5666 5665 5665 5664 5663 5662
5644 5647 5649 5649 5650 5650 5650 5651 5651 5651 5652 5652 5653 5653 5654 5655 5656 5657 5658 5659 5660 5661 5662 5663 5663 5663 5663 5663 5663 5662 5662 5661 5661 5661 5661 5661 5661 5660 5659 5658 5657 5656 5656
5639 5640 5641 5642 5643 5644 5643 5643 5643 5643 5644 5644 5645 5646 5646 5647 5648 5649 5650 5651 5653 5653 5654 5655 5656 5656 5656 5656 5656 5655 5654 5654 5654 5654 5654 5654 5654 5653 5652 5652 5651 5650 5649
5633 5634 5633 5635 5636 5636 5636 5636 5635 5636 5636 5636 5637 5638 5638 5638 5639 5641 5642 5643 5644 5646 5647 5647 5648 5648 5648 5648 5648 5648 5647 5647 5647 5647 5647 5647 5646 5646 5645 5645 5644 5643 5642
5627 5628 5627 5627 5629 5629 5629 5628 5627 5627 5628 5627 5628 5629 5629 5630 5630 5631 5633 5635 5636 5638 5639 5639 5639 5640 5640 5640 5639 5640 5640 5639 5639 5639 5639 5639 5638 5638 5637 5637 5636 5635 5634
5621 5621 5620 5620 5621 5621 5620 5619 5619 5618 5619 5619 5619 5619 5620 5620 5621 5622 5624 5626 5627 5629 5630 5630 5631 5631 5631 5630 5630 5631 5631 5631 5631 5631 5631 5631 5630 5629 5629 5628 5628 5627 5626
5615 5614 5612 5613 5612 5612 5611 5610 5610 5609 5610 5610 5610 5610 5610 5611 5612 5613 5614 5616 5618 5619 5620 5622 5621 5622 5621 5621 5621 5622 5622 5622 5622 5623 5623 5622 5621 5621 5620 5619 5618 5618 5617
5608 5607 5605 5604 5604 5603 5602 5601 5600 5599 5600 5600 5601 5601 5601 5602 5603 5604 5605 5607 5608 5609 5610 5612 5612 5612 5611 5612 5612 5611 5612 5612 5613 5614 5614 5613 5613 5612 5611 5610 5609 5608 5608
5601 5599 5597 5596 5595 5594 5593 5592 5590 5590 5590 5590 5592 5592 5593 5593 5594 5595 5596 5597 5598 5600 5601 5602 5602 5602 5601 5602 5601 5599 5600 5601 5603 5603 5604 5604 5603 5603 5601 5601 5600 5599 5598
5594 5592 5590 5588 5587 5587 5586 5584 5583 5582 5581 5582 5583 5583 5584 5584 5585 5586 5587 5588 5589 5590 5591 5592 5593 5592 5591 5592 5592 5589 5587 5588 5591 5594 5594 5594 5593 5593 5592 5590 5590 5589 5589
5585 5584 5584 5581 5579 5579 5578 5575 5574 5572 5572 5572 5573 5574 5575 5575 5576 5577 5578 5579 5580 5581 5582 5582 5584 5584 5582 5582 5584 5584 5580 5579 5578 5581 5582 5583 5583 5582 5581 5581 5580 5580 5579
5578 5576 5575 5573 5571 5571 5570 5568 5568 5566 5565 5565 5565 5566 5566 5567 5568 5569 5569 5570 5571 5572 5573 5574 5574 5575 5574 5573 5573 5575 5575 5574 5570 5569 5571 5572 5572 5572 5571 5571 5570 5569 5569
5570 5568 5567 5566 5564 5564 5563 5562 5561 5559 5558 5557 5556 5556 5557 5558 5559 5559 5560 5561 5561 5562 5564 5565 5564 5564 5564 5565 5565 5565 5564 5563 5562 5561 5561 5561 5560 5561 5561 5561 5560 5559 5558
5562 5561 5560 5558 5556 5556 5555 5554 5554 5551 5550 5549 5548 5547 5548 5549 5549 5550 5550 5551 5552 5553 5554 5555 5555 5555 5555 5555 5556 5557 5557 5555 5553 5552 5550 5549 5550 5551 5551 5551 5550 5549 5548